Showing default

BALKAN-2, 69024

Orbit data source: Space-Track

BALKAN-2, 69024 is a payload satellite owned by Endurosat (BG) in SSO that was launched on Sun, 03 May 2026 UTC via an FALCON 9 launch vehicle from the Air Force Western Test Range (AFWTR). Payload-class satellites include a variety of spacecraft equipped with specific instruments for various scientific and technological missions. These include communications satellites like Starlink; space stations such as the ISS; scientific satellites like the Hubble; Earth observation satellites from companies like Planet Labs, Umbra, and HawkEye 360; GPS; miniature CubeSats for education and research; and military/defense satellites.

Loading next visibility...
Identifier
69024, 2026-100AW
Orbit
SSO
Country
Flag of BGBG / BGR
Related business
Manufacturer
Endurosat
Mission
Operational spacecraft
Bus & Motor
CUBESAT 16U, Unknown motor
Mass
32 kg wet, 32 kg dry
Launch date (UTC)
2026-05-03 (2 months ago)
Launch vehicle
FALCON 9
Launch site
Air Force Western Test Range (AFWTR)
Object type
Payload
Rocket body
Debris
Shape & HBR
Unknown shape, 14.5 m
Radar Cross Section
Medium (>0.1 m² and <1 m²)

Expand to show TLE details & history
Last TLE update: 23 hours ago

TLE from 23 hours ago
0 BALKAN-2
1 69024U 26100AW  26174.94895534  .00004490  00000-0  21075-3 0  9992
2 69024  97.4064  72.6421 0003022  11.2908 348.8395 15.20143023  7832
Epoch: 2026-06-23T22:46Z
TLE epoch observation values (Epoch: 2026-06-23T22:46:29.741Z)
Latitude
0.00004°
Longitude
178.90499°
Altitude
506.458 km
Speed
7.612 km/s
True Right ascension
04h 50m 34s
True Declination
0° 00' 00"
Sunlit
Object was in daylight at epoch
Visualization orbit readout
Latitude
Unknown
Longitude
Unknown
Altitude
Unknown
Speed
Unknown
Apparent Right ascension
Unknown
Apparent Declination
Unknown
Sunlit
N/A
Visualization observer readout
Local Sidereal Time
08:36:26
Azimuth
Unknown
Elevation
Unknown
Doppler factor
Unknown
Orbital elements
Apogee altitude
504.454 km
Perigee altitude
500.295 km
Semi-major axis
6,880.511 km
Eccentricity
0.0003
Inclination
97.4064°
RAAN
72.6421°
Arg. of periapsis
11.2908°
True anomaly
348.83279°
Mean anomaly
348.8395°
Eccentric anomaly
348.83615°
Mean motion
3.80288 °/min
Orbital period
94.67 mins
BSTAR
0.00021075
Loading maneuver chart data...
Computing Atmospheric mass density...
Loading historical data...
Loading historical data...
Loading historical data...
Loading historical data...
Loading historical data...
Loading historical data...
Loading historical data...

Documentation

Showing up to 5 results
|